Location: C�an Torras
(41.5052°N, 1.9280°E)
Time: 01:36:34
(UTC+00:00)

CZ-2D R/B - Pass Details

Date: 20 January 2021
Orbit: 521 x 537 km, 97.4° (Epoch: 08 March)

Event Time Altitude Azimuth Distance (km) Brightness Sun altitude
Rises 18:23:31 0° 177° (S) 2,671 6.9 -16.7°
Reaches altitude 10° 18:25:40 10° 182° (S) 1,783 6.1 -17.1°
Maximum altitude 18:29:27 55° 260° (W) 649 4.0 -17.8°
Drops below altitude 10° 18:33:14 10° 339° (NNW) 1,790 6.0 -18.5°
Sets 18:35:24 0° 344° (NNW) 2,682 6.9 -18.9°
